[[{"header":{"parameterUnit":"m.s-1","parameterCategory":1,"la1":30.2991,"la2":30.254,"lo1":-89.0895,"lo2":-89.0444,"dy":0.0017,"dx":0.0017,"nx":28,"ny":28,"refTime":"2023-08-11T09:00:00:Z","depth":0,"parameterNumber":2,"parameterNumberName":"U-component_of_WINDS"},"data":[0,0,0,0,0,0,0,0,0,0,0,0,0,0,0,0,0,0,0,0,0,0,0,0,0,0,0,0,0,0,0,0,0,0,0,0,0,0,0,0,0,0,0,0,0,0,0,0,0,0,0,0,0,0,0,0,0,0,1.2257,1.2258,0,1.2436,1.2438,1.244,1.2502,1.2502,1.2501,1.25,1.2685,1.2691,1.2696,0,0,0,0,0,0,0,0,0,0,0,0,0,1.1969,1.1974,1.2256,1.2259,1.2261,1.2435,1.2438,1.244,1.2503,1.2502,1.2501,1.25,1.2683,1.269,1.2697,0,0,0,0,0,0,0,0,0,0,0,0,0,1.2116,1.1976,1.2256,1.2313,1.232,1.2435,1.2438,1.2441,1.2503,1.2502,1.2501,1.25,1.2681,1.2689,1.2698,1.2769,0,0,1.2723,1.2727,0,0,0,0,0,0,0,0,1.2107,1.2126,1.2302,1.2309,1.2317,1.2446,1.2404,1.2551,1.2503,1.2433,1.25,1.2499,1.2606,1.2621,1.2657,1.2778,1.2786,1.2724,1.2729,1.2732,1.2735,0,0,0,0,0,0,0,1.2097,1.2119,1.2327,1.2305,1.2314,1.233,1.235,1.2432,1.2523,1.2439,1.2444,1.2465,1.261,1.2648,1.2661,1.2788,1.2723,1.2731,1.2736,1.2739,1.2977,1.2978,0,0,0,0,0,0,1.2077,1.211,1.2322,1.2333,1.2208,1.2336,1.2358,1.2405,1.2523,1.254,1.2465,1.2467,1.2635,1.2652,1.2668,1.2759,1.2732,1.274,1.2745,1.2975,1.2977,1.2978,0,0,0,0,0,0,1.2071,1.2096,1.2314,1.2223,1.2252,1.2342,1.2395,1.2409,1.2448,1.2542,1.2559,1.2487,1.2635,1.2656,1.2743,1.2766,1.2744,1.2751,1.2974,1.2976,1.2978,1.2941,0,0,0,0,0,0,1.2062,1.2093,1.2121,1.2223,1.2256,1.2386,1.2396,1.2414,1.2462,1.2466,1.2568,1.2583,1.2636,1.2731,1.2752,1.2777,1.2758,1.2972,1.2975,1.2977,1.2941,1.2942,1.2943,0,0,0,0,0,1.2052,1.2104,1.2122,1.2147,1.2293,1.2387,1.2406,1.2465,1.2463,1.2492,1.2553,1.258,1.2761,1.2739,1.2763,1.2792,1.2971,1.2974,1.2977,1.2941,1.2942,1.2943,0,0,0,0,0,0,1.2002,1.2118,1.214,1.2226,1.2296,1.2398,1.2436,1.2464,1.2537,1.2537,1.2607,1.263,1.2711,1.2761,1.2734,1.2867,1.2867,1.2875,1.2831,1.2833,1.2834,1.282,1.2765,0,0,0,0,0,1.2001,1.2068,1.2166,1.2233,1.2267,1.2345,1.2388,1.2427,1.2503,1.2533,1.26,1.2673,1.2746,1.2793,1.2865,1.2949,1.2972,1.2981,1.2981,1.2982,1.2987,1.3035,1.304,1.2988,1.2988,1.2988,0,0,1.2,1.2072,1.211,1.2224,1.2283,1.2351,1.237,1.244,1.2491,1.2544,1.2629,1.2681,1.2767,1.2852,1.2893,1.2896,1.3007,1.2985,1.2985,1.2991,1.3038,1.3043,1.3047,1.299,1.299,1.2989,0,0,1.2032,1.2093,1.2155,1.2214,1.2303,1.2355,1.2369,1.2467,1.2503,1.259,1.2631,1.2693,1.2817,1.2877,1.2923,1.2977,1.3005,1.2999,1.3003,1.3049,1.3053,1.3057,1.3075,1.3081,1.3005,1.3005,1.3005,0,1.202,1.2122,1.2184,1.2252,1.2301,1.2352,1.2415,1.2469,1.2577,1.261,1.2612,1.2769,1.283,1.293,1.2943,1.2979,1.2998,1.2987,1.3047,1.3052,1.3056,1.3075,1.3082,1.3003,1.3003,1.3003,1.3004,0,1.2102,1.2173,1.2212,1.2315,1.2368,1.2434,1.2505,1.2552,1.2587,1.2638,1.2726,1.2801,1.289,1.2917,1.2951,1.3021,1.302,1.3033,1.3035,1.3059,1.3077,1.3085,1.3001,1.3002,1.3002,1.3002,0,0,1.2107,1.2243,1.2256,1.2303,1.2405,1.2461,1.2529,1.2615,1.2653,1.2726,1.2785,1.2889,1.2902,1.2954,1.2996,1.3036,1.3073,1.3045,1.3048,1.3047,1.3154,1.3142,1.315,1.3092,1.3094,1.3095,1.3146,0,1.2152,1.2275,1.2332,1.2429,1.2495,1.2544,1.2603,1.2672,1.2722,1.2786,1.2841,1.2913,1.2926,1.2957,1.2999,1.3059,1.3095,1.3057,1.3147,1.315,1.3123,1.316,1.3148,1.3192,1.3154,1.3156,1.3156,0,1.222,1.2292,1.2396,1.249,1.252,1.2571,1.2655,1.2715,1.2794,1.2828,1.2886,1.2926,1.2999,1.2996,1.3098,1.307,1.3111,1.3146,1.3149,1.3159,1.3154,1.317,1.3208,1.3214,1.3169,1.3168,1.3167,0,1.2212,1.2336,1.2414,1.2453,1.2564,1.2599,1.2647,1.2726,1.2773,1.2846,1.2878,1.2959,1.3003,1.3064,1.3125,1.3117,1.3221,1.3223,1.3251,1.3249,1.327,1.3267,1.3314,1.3297,1.3297,1.3296,1.3296,0,1.2256,1.2317,1.2412,1.2459,1.253,1.2595,1.2663,1.2714,1.2784,1.2842,1.2891,1.2945,1.3022,1.3086,1.3134,1.3211,1.3231,1.326,1.3272,1.3255,1.3251,1.3282,1.328,1.3298,1.3298,1.3298,1.3297,0,1.2259,1.2325,1.2412,1.2511,1.2537,1.2584,1.2668,1.2717,1.2769,1.2843,1.2864,1.2946,1.3024,1.3091,1.3194,1.3226,1.3305,1.332,1.3278,1.3284,1.3308,1.3304,1.3375,1.3388,1.3362,1.3362,1.3362,0,1.2281,1.233,1.2433,1.2476,1.2523,1.2591,1.264,1.2706,1.2755,1.2849,1.2886,1.2967,1.3036,1.3158,1.3227,1.3306,1.3322,1.3342,1.3335,1.3316,1.3322,1.3318,1.3323,1.3342,1.3342,1.3342,1.3342,0,1.2315,1.2345,1.2413,1.2493,1.255,1.2617,1.2684,1.2717,1.2796,1.2848,1.2928,1.2981,1.3086,1.3166,1.3252,1.3302,1.3335,1.3343,1.3354,1.3337,1.331,1.3324,1.3278,1.3341,1.3341,1.3341,1.3341,1.3341,1.2328,1.2373,1.2452,1.2527,1.2585,1.2647,1.2697,1.2756,1.2823,1.2913,1.2948,1.303,1.3108,1.3227,1.3277,1.3342,1.3347,1.3362,1.3366,1.3369,1.3365,1.33,1.3358,1.3358,1.3358,1.3358,1.3358,0,1.2363,1.2417,1.2485,1.2578,1.2636,1.2662,1.2738,1.2786,1.2856,1.2926,1.2993,1.3084,1.3162,1.3237,1.3319,1.3356,1.3373,1.3375,1.3373,1.3383,1.3357,1.3339,1.336,1.336,1.336,1.336,1.336,1.336,1.2388,1.2465,1.2505,1.2611,1.2665,1.2744,1.2785,1.2843,1.2899,1.2999,1.3063,1.3112,1.3184,1.3271,1.3344,1.3364,1.3391,1.3389,1.3413,1.3386,1.3385,1.3384,1.3368,1.3395,1.3395,1.3435,1.3435,1.3435]},{"header":{"parameterUnit":"m.s-1","parameterCategory":1,"la1":30.2991,"la2":30.254,"lo1":-89.0895,"lo2":-89.0444,"dy":0.0017,"dx":0.0017,"nx":28,"ny":28,"refTime":"2023-08-11T09:00:00:Z","depth":0,"parameterNumber":3,"parameterNumberName":"V-component_of_WINDS"},"data":[0,0,0,0,0,0,0,0,0,0,0,0,0,0,0,0,0,0,0,0,0,0,0,0,0,0,0,0,0,0,0,0,0,0,0,0,0,0,0,0,0,0,0,0,0,0,0,0,0,0,0,0,0,0,0,0,0,0,5.3736,5.3736,0,5.3741,5.3741,5.3741,5.3679,5.3677,5.3675,5.3673,5.3677,5.3678,5.368,0,0,0,0,0,0,0,0,0,0,0,0,0,5.3669,5.3671,5.3736,5.3736,5.3736,5.3741,5.3741,5.3741,5.3679,5.3677,5.3675,5.3673,5.3676,5.3678,5.368,0,0,0,0,0,0,0,0,0,0,0,0,0,5.3689,5.3672,5.3736,5.3706,5.3703,5.3741,5.3741,5.3741,5.3679,5.3677,5.3674,5.3672,5.3676,5.3678,5.3681,5.3748,0,0,5.3688,5.3689,0,0,0,0,0,0,0,0,5.3688,5.3691,5.371,5.3708,5.3705,5.3707,5.3719,5.3743,5.368,5.3688,5.3673,5.367,5.3689,5.369,5.3697,5.3748,5.3748,5.3688,5.369,5.3691,5.3692,0,0,0,0,0,0,0,5.3687,5.3691,5.3738,5.371,5.3707,5.3691,5.3691,5.3723,5.3703,5.3687,5.3683,5.3684,5.3687,5.3694,5.3696,5.3748,5.3688,5.3691,5.3692,5.3693,5.3854,5.3856,0,0,0,0,0,0,5.369,5.369,5.3738,5.3738,5.369,5.3694,5.3694,5.3709,5.3702,5.3699,5.3687,5.3681,5.3691,5.3693,5.3696,5.3773,5.3691,5.3693,5.3695,5.3851,5.3854,5.3857,0,0,0,0,0,0,5.3689,5.3695,5.3738,5.3713,5.3717,5.3698,5.3715,5.371,5.3717,5.3702,5.3697,5.3698,5.3689,5.3692,5.3735,5.3773,5.3695,5.3697,5.3848,5.3852,5.3856,5.3929,0,0,0,0,0,0,5.3687,5.3695,5.372,5.3714,5.3719,5.3778,5.3717,5.3712,5.3722,5.3716,5.3711,5.3708,5.3687,5.3732,5.3738,5.3775,5.3699,5.3844,5.3849,5.3854,5.3923,5.3935,5.3945,0,0,0,0,0,5.3685,5.374,5.3722,5.3728,5.3751,5.378,5.3782,5.3758,5.3726,5.3751,5.3741,5.3708,5.3768,5.3737,5.3743,5.3781,5.3842,5.3848,5.3854,5.3918,5.3933,5.3945,0,0,0,0,0,0,5.3751,5.3739,5.3718,5.3774,5.3779,5.3769,5.38,5.3774,5.3788,5.3781,5.3749,5.3749,5.3797,5.3793,5.3759,5.3845,5.3799,5.3807,5.3846,5.3859,5.387,5.387,5.3701,0,0,0,0,0,5.3772,5.3798,5.3786,5.3836,5.3839,5.382,5.3831,5.3812,5.3815,5.3817,5.381,5.3813,5.3832,5.3846,5.3863,5.3923,5.392,5.3952,5.3963,5.3972,5.3979,5.401,5.4023,5.3877,5.3877,5.3877,0,0,5.3816,5.3812,5.383,5.3849,5.385,5.3876,5.3822,5.3852,5.387,5.3821,5.3861,5.3856,5.3858,5.3909,5.3932,5.3908,5.4019,5.398,5.3988,5.3989,5.4017,5.4031,5.4044,5.3882,5.3881,5.388,0,0,5.3908,5.3909,5.395,5.3953,5.3956,5.3943,5.3953,5.3948,5.3943,5.3982,5.3946,5.3967,5.4002,5.4004,5.401,5.4105,5.4075,5.4111,5.4169,5.4199,5.421,5.422,5.4253,5.4265,5.4118,5.4118,5.4118,0,5.3962,5.4001,5.3975,5.4007,5.4016,5.3974,5.4015,5.4018,5.4027,5.4033,5.4007,5.4049,5.4047,5.4098,5.4122,5.4128,5.4138,5.4111,5.4211,5.4221,5.423,5.4261,5.4273,5.4122,5.4122,5.4122,5.4121,0,5.4066,5.4093,5.4126,5.4136,5.4148,5.4185,5.4164,5.418,5.416,5.415,5.419,5.4187,5.4202,5.4213,5.4194,5.4262,5.4247,5.4217,5.4169,5.4248,5.4277,5.4288,5.4129,5.4127,5.4126,5.4125,0,0,5.4199,5.4195,5.4207,5.4211,5.4211,5.4231,5.4266,5.4282,5.4295,5.4303,5.433,5.436,5.4332,5.4339,5.432,5.4346,5.442,5.4312,5.4312,5.4332,5.4494,5.4516,5.453,5.4401,5.4403,5.4405,5.4493,0,5.4288,5.4348,5.4326,5.4386,5.4411,5.4371,5.4401,5.4404,5.4396,5.4414,5.4404,5.4426,5.4388,5.4391,5.4416,5.4406,5.4452,5.44,5.4426,5.4427,5.4425,5.4545,5.4569,5.4652,5.4504,5.4506,5.4508,0,5.44,5.4413,5.4476,5.4472,5.4481,5.4509,5.4521,5.454,5.4543,5.4534,5.4543,5.4517,5.455,5.4504,5.4549,5.4513,5.4523,5.452,5.4522,5.4523,5.4471,5.4548,5.4678,5.469,5.4525,5.4524,5.4522,0,5.449,5.4522,5.4564,5.4569,5.4565,5.4585,5.4585,5.4585,5.4596,5.4607,5.4613,5.4628,5.4636,5.4647,5.4626,5.4595,5.4673,5.4626,5.4667,5.4667,5.4684,5.4683,5.4816,5.4692,5.4692,5.4692,5.4691,0,5.4591,5.4631,5.4604,5.463,5.4673,5.4648,5.4691,5.4686,5.4687,5.471,5.4677,5.47,5.4671,5.4691,5.4675,5.4714,5.4718,5.4711,5.4706,5.4714,5.4714,5.4719,5.4712,5.4695,5.4694,5.4694,5.4693,0,5.4697,5.4682,5.4724,5.4718,5.4717,5.475,5.4744,5.4767,5.4756,5.4786,5.4792,5.4775,5.4796,5.4777,5.4798,5.4787,5.4838,5.4826,5.4838,5.4834,5.4875,5.4871,5.5015,5.5033,5.4898,5.49,5.4901,0,5.4762,5.4792,5.479,5.4803,5.4805,5.4828,5.4839,5.4815,5.4827,5.4833,5.4855,5.4874,5.4888,5.4924,5.4913,5.4928,5.4915,5.4964,5.4917,5.4923,5.4915,5.4913,5.4915,5.4974,5.4975,5.4977,5.4978,0,5.4879,5.487,5.4888,5.4903,5.4917,5.4928,5.4936,5.4949,5.4924,5.494,5.4962,5.4973,5.4994,5.5013,5.5025,5.5024,5.4997,5.4993,5.5003,5.501,5.5016,5.5013,5.4863,5.4989,5.4988,5.4987,5.4987,5.4986,5.4966,5.4991,5.4993,5.5013,5.5017,5.5025,5.5047,5.5039,5.5057,5.5073,5.5058,5.5084,5.5086,5.51,5.5102,5.5121,5.5101,5.5116,5.5119,5.5123,5.5129,5.5014,5.5124,5.5123,5.5123,5.5123,5.5122,0,5.508,5.508,5.5099,5.5112,5.5128,5.5102,5.511,5.5125,5.5149,5.5153,5.5168,5.5193,5.5211,5.5202,5.5218,5.5236,5.5224,5.5241,5.5238,5.5238,5.5147,5.5136,5.525,5.525,5.525,5.525,5.525,5.525,5.5141,5.5182,5.5173,5.5214,5.5213,5.524,5.5246,5.5253,5.5256,5.5286,5.5302,5.5296,5.5295,5.531,5.5326,5.5323,5.533,5.5351,5.5343,5.5257,5.5245,5.5233,5.5223,5.5353,5.5353,5.5433,5.5434,5.5434]}]]